Regional Weather Roundup
Issued by NWS Little Rock, AR

Home | Current Version | Previous Version | Graphics & Text | Print | Product List | Glossary On
Versions: 1 2 3 4 5 6 7 8 9 10 11 12 13 14 15 16 17 18 19 20 21 22 23 24 25 26 27 28 29 30 31 32 33 34 35 36 37 38 39 40 41 42 43 44 45 46 47 48 49 50
000
ASUS44 KLZK 210105
RWRLZK

WEATHER ROUNDUP FOR ARKANSAS
NATIONAL WEATHER SERVICE LITTLE ROCK AR
700 PM CST SAT DEC 20 2014

NOTE: "FAIR" INDICATES FEW OR NO CLOUDS BELOW 12,000 FEET WITH NO
SIGNIFICANT WEATHER AND/OR OBSTRUCTIONS TO VISIBILITY.

ARZ001-003-010-029-210200-
NORTHWEST ARKANSAS

CITY           SKY/WX    TMP DP  RH WIND       PRES   REMARKS
FAYETTEVILLE   CLOUDY    41  36  82 CALM      30.19S
FORT SMITH     CLOUDY    45  40  82 CALM      30.21S
HARRISON       CLOUDY    41  39  93 SE5       30.19S
BENTONVILLE    CLOUDY    43  34  70 SW7       30.20R
ROGERS         CLOUDY    41  35  79 SW8       30.19S
SILOAM SPGS    CLOUDY    43  32  65 S3        30.20S
HIGHFILL       CLOUDY    42  36  79 S5        30.18S
SPRINGDALE     CLOUDY    41  34  75 S6        30.21R
$$

ARZ004-005-016-210200-
NORTH CENTRAL ARKANSAS

CITY           SKY/WX    TMP DP  RH WIND       PRES   REMARKS
BATESVILLE     CLOUDY    43  36  75 SE3       30.25S
FLIPPIN        CLOUDY    43  36  75 CALM      30.21S
MTN HOME       CLOUDY    40  38  93 E3        30.20S
$$

ARZ040-041-210200-
WEST CENTRAL ARKANSAS

CITY           SKY/WX    TMP DP  RH WIND       PRES   REMARKS
MENA           CLOUDY    46  43  87 CALM      30.20R
MOUNT IDA      CLOUDY    46  43  89 CALM      30.18S
$$

ARZ009-017-025-026-028-210200-
NORTHEAST ARKANSAS

CITY           SKY/WX    TMP DP  RH WIND       PRES   REMARKS
CORNING        HAZE      41  36  81 E5        30.27R VSB 1
JONESBORO      CLEAR     36  35  96 CALM      30.26R
NEWPORT        MOCLDY    40  38  93 NE3       30.27S
WALNUT RIDGE   CLOUDY    43  36  75 NE3       30.25R
BLYTHEVILLE    CLEAR     38  34  85 NE6       30.27R
$$

ARZ022-023-033-042-044-210200-
CENTRAL ARKANSAS

CITY           SKY/WX    TMP DP  RH WIND       PRES   REMARKS
LITTLE ROCK    PTCLDY    42  35  76 E3        30.25R
N LITTLE ROCK  PTCLDY    40  38  91 NE3       30.25R
JACKSONVILLE   CLOUDY    42  37  80 E1        30.24R
SEARCY         CLOUDY    41  36  82 NE6       30.26S
HOT SPRINGS    CLOUDY    48  42  80 E3        30.22R
RUSSELLVILLE   CLOUDY    43  40  89 CALM      30.22S
CLINTON        CLOUDY    45  39  81 CALM      30.25R
$$

ARZ036-210200-
EAST ARKANSAS

CITY           SKY/WX    TMP DP  RH WIND       PRES   REMARKS
WEST MEMPHIS   CLOUDY    43  38  82 N5        30.23S
$$

ARZ050-053-066-070-073-210200-
SOUTHWEST ARKANSAS

CITY           SKY/WX    TMP DP  RH WIND       PRES   REMARKS
ARKADELPHIA    FAIR      42  42 100 CALM      30.23R
CAMDEN         CLEAR     45  39  81 MISG      30.22R
TEXARKANA      CLEAR     45  41  86 NE5       30.21R
EL DORADO      MOCLDY    42  41  96 CALM      30.21R
DE QUEEN       CLOUDY    48  44  86 CALM      30.20R
$$

ARZ056-057-069-210200-
SOUTHEAST ARKANSAS

CITY           SKY/WX    TMP DP  RH WIND       PRES   REMARKS
PINE BLUFF     CLEAR     41  35  79 N6        30.23S
STUTTGART      CLEAR     43  36  75 NE5       30.25R
MONTICELLO     FAIR      44  37  76 NE3       30.21S

$$




USA.gov is the U.S. government's official web portal to all federal, state and local government web resources and services.